| time (UTC) | temp F | wind direction | speed knots | gust knots | rain 1hr in | rain 24hr in | rain mn in | humidity % | barometer mb |
| 20260508211558 | 77 | 232 | 1.7 | 7.0 | 0.00 | 0.00 | 0.00 | 48 | 1011.9 |
| 20260508210054 | 77 | 240 | 0.9 | 5.2 | 0.00 | 0.00 | 0.00 | 48 | 1011.9 |
| 20260508204555 | 77 | 282 | 0.0 | 4.3 | 0.00 | 0.00 | 0.00 | 50 | 1012.1 |
| 20260508203049 | 76 | 137 | 0.0 | 5.2 | 0.00 | 0.00 | 0.00 | 50 | 1012.2 |
| 20260508201549 | 76 | 211 | 1.7 | 6.1 | 0.00 | 0.00 | 0.00 | 52 | 1012.3 |
| 20260508200103 | 76 | 307 | 0.9 | 5.2 | 0.00 | 0.00 | 0.00 | 46 | 1012.5 |
| 20260508194541 | 76 | 236 | 0.0 | 2.6 | 0.00 | 0.00 | 0.00 | 47 | 1012.7 |
| 20260508193051 | 75 | 163 | 0.9 | 4.3 | 0.00 | 0.00 | 0.00 | 49 | 1012.8 |
| 20260508191537 | 75 | 154 | 1.7 | 4.3 | 0.00 | 0.00 | 0.00 | 47 | 1013.3 |
| 20260508190033 | 74 | 167 | 0.9 | 3.5 | 0.00 | 0.00 | 0.00 | 50 | 1013.7 |
| 20260508184531 | 74 | 229 | 0.9 | 3.5 | 0.00 | 0.00 | 0.00 | 51 | 1014.2 |
| 20260508183029 | 73 | 193 | 3.5 | 9.6 | 0.00 | 0.00 | 0.00 | 51 | 1014.1 |
| 20260508181536 | 73 | 250 | 0.9 | 5.2 | 0.00 | 0.00 | 0.00 | 48 | 1014.4 |
| 20260508180029 | 72 | 214 | 1.7 | 5.2 | 0.00 | 0.00 | 0.00 | 50 | 1014.7 |
| 20260508174522 | 72 | 112 | 0.9 | 6.1 | 0.00 | 0.00 | 0.00 | 49 | 1015.0 |
| 20260508173021 | 72 | 174 | 2.6 | 6.1 | 0.00 | 0.00 | 0.00 | 51 | 1015.2 |
| 20260508171518 | 71 | 248 | 1.7 | 8.7 | 0.00 | 0.00 | 0.00 | 51 | 1015.5 |
| 20260508170013 | 71 | 212 | 0.9 | 7.8 | 0.00 | 0.00 | 0.00 | 53 | 1015.9 |
| 20260508164513 | 71 | 178 | 0.9 | 6.1 | 0.00 | 0.00 | 0.00 | 50 | 1016.4 |
| 20260508163013 | 70 | 215 | 0.0 | 8.7 | 0.00 | 0.00 | 0.00 | 52 | 1016.6 |
| 20260508161510 | 70 | 359 | 0.9 | 3.5 | 0.00 | 0.00 | 0.00 | 53 | 1016.6 |
| 20260508160006 | 70 | 246 | 0.9 | 4.3 | 0.00 | 0.00 | 0.00 | 55 | 1016.8 |
| 20260508154504 | 69 | 224 | 0.0 | 2.6 | 0.00 | 0.00 | 0.00 | 55 | 1016.8 |
| 20260508153003 | 69 | 230 | 0.9 | 3.5 | 0.00 | 0.00 | 0.00 | 57 | 1017.0 |
| 20260508151609 | 68 | 319 | 0.9 | 7.8 | 0.00 | 0.00 | 0.00 | 59 | 1017.2 |
| 20260508150059 | 68 | 203 | 1.7 | 5.2 | 0.00 | 0.00 | 0.00 | 58 | 1017.4 |
| 20260508144609 | 67 | 222 | 0.0 | 2.6 | 0.00 | 0.00 | 0.00 | 62 | 1017.4 |
| 20260508143105 | 67 | 253 | 0.0 | 1.7 | 0.00 | 0.00 | 0.00 | 65 | 1017.5 |
| 20260508141604 | 66 | 233 | 0.9 | 3.5 | 0.00 | 0.00 | 0.00 | 66 | 1017.8 |
| 20260508140050 | 65 | 256 | 0.0 | 0.9 | 0.00 | 0.00 | 0.00 | 76 | 1018.1 |
| 20260508134557 | 61 | 256 | 0.0 | 0.9 | 0.00 | 0.00 | 0.00 | 87 | 1018.0 |
| 20260508133050 | 55 | 256 | 0.0 | 0.9 | 0.00 | 0.00 | 0.00 | 99 | 1018.2 |
| 20260508131535 | 52 | 269 | 0.0 | 0.9 | 0.00 | 0.00 | 0.00 | 100 | 1018.2 |
| 20260508130034 | 49 | 269 | 0.0 | 0.0 | 0.00 | 0.00 | 0.00 | 99 | 1018.1 |
| 20260508124534 | 47 | 269 | 0.0 | 0.0 | 0.00 | 0.00 | 0.00 | 99 | 1018.2 |
| 20260508123043 | 45 | 269 | 0.0 | 0.0 | 0.00 | 0.00 | 0.00 | 99 | 1018.1 |
| 20260508121530 | 44 | 269 | 0.0 | 0.0 | 0.00 | 0.00 | 0.00 | 98 | 1018.1 |
| 20260508120024 | 42 | 269 | 0.0 | 0.0 | 0.00 | 0.00 | 0.00 | 98 | 1017.8 |
| 20260508114523 | 42 | 269 | 0.0 | 0.0 | 0.00 | 0.00 | 0.00 | 98 | 1017.6 |
| 20260508113023 | 41 | 269 | 0.0 | 0.0 | 0.00 | 0.00 | 0.00 | 98 | 1017.5 |
| 20260508111527 | 41 | 269 | 0.0 | 0.0 | 0.00 | 0.00 | 0.00 | 97 | 1017.1 |
| 20260508110025 | 41 | 269 | 0.0 | 0.0 | 0.00 | 0.00 | 0.00 | 97 | 1017.2 |
| 20260508104520 | 41 | 269 | 0.0 | 0.0 | 0.00 | 0.00 | 0.00 | 97 | 1017.2 |
| 20260508103018 | 42 | 269 | 0.0 | 0.0 | 0.00 | 0.00 | 0.00 | 97 | 1017.2 |
| 20260508101517 | 42 | 269 | 0.0 | 0.0 | 0.00 | 0.00 | 0.00 | 97 | 1017.1 |
| 20260508100017 | 42 | 269 | 0.0 | 0.0 | 0.00 | 0.00 | 0.00 | 97 | 1016.8 |
| 20260508094514 | 42 | 269 | 0.0 | 0.0 | 0.00 | 0.00 | 0.00 | 97 | 1016.6 |
| 20260508093017 | 42 | 269 | 0.0 | 0.0 | 0.00 | 0.00 | 0.00 | 97 | 1016.6 |
| 20260508091511 | 43 | 269 | 0.0 | 0.0 | 0.00 | 0.00 | 0.00 | 97 | 1016.6 |
| 20260508090016 | 43 | 269 | 0.0 | 0.0 | 0.00 | 0.00 | 0.00 | 97 | 1016.6 |
| 20260508084508 | 43 | 269 | 0.0 | 0.0 | 0.00 | 0.00 | 0.00 | 97 | 1016.5 |
| 20260508083008 | 44 | 269 | 0.0 | 0.0 | 0.00 | 0.00 | 0.00 | 97 | 1016.7 |
| 20260508081504 | 44 | 269 | 0.0 | 0.0 | 0.00 | 0.00 | 0.00 | 97 | 1016.6 |
| 20260508080004 | 44 | 269 | 0.0 | 0.0 | 0.00 | 0.00 | 0.00 | 97 | 1016.7 |
| 20260508074501 | 45 | 269 | 0.0 | 0.9 | 0.00 | 0.00 | 0.00 | 97 | 1016.8 |
| 20260508073111 | 45 | 269 | 0.0 | 0.0 | 0.00 | 0.00 | 0.00 | 96 | 1016.8 |
| 20260508071605 | 45 | 269 | 0.0 | 0.0 | 0.00 | 0.00 | 0.00 | 96 | 1016.8 |
| 20260508070054 | 46 | 269 | 0.0 | 0.0 | 0.00 | 0.00 | 0.00 | 96 | 1017.0 |
| 20260508064559 | 46 | 269 | 0.0 | 0.0 | 0.00 | 0.00 | 0.00 | 96 | 1017.2 |
| 20260508063057 | 46 | 269 | 0.0 | 0.0 | 0.00 | 0.00 | 0.00 | 96 | 1017.3 |
| 20260508061550 | 47 | 269 | 0.0 | 0.0 | 0.00 | 0.00 | 0.00 | 96 | 1017.4 |
| 20260508054546 | 47 | 269 | 0.0 | 0.0 | 0.00 | 0.00 | 0.00 | 96 | 1017.5 |
| 20260508053044 | 47 | 269 | 0.0 | 0.0 | 0.00 | 0.00 | 0.00 | 96 | 1017.4 |
| 20260508051559 | 48 | 269 | 0.0 | 0.0 | 0.00 | 0.00 | 0.00 | 95 | 1017.5 |
| 20260508050039 | 48 | 269 | 0.0 | 0.0 | 0.00 | 0.00 | 0.00 | 95 | 1017.5 |
| 20260508044547 | 48 | 269 | 0.0 | 0.0 | 0.00 | 0.00 | 0.00 | 95 | 1017.4 |
| 20260508043039 | 48 | 269 | 0.0 | 0.0 | 0.00 | 0.00 | 0.00 | 94 | 1017.5 |
| 20260508041538 | 49 | 269 | 0.0 | 0.0 | 0.00 | 0.00 | 0.00 | 94 | 1017.4 |
| 20260508040048 | 49 | 269 | 0.0 | 0.0 | 0.00 | 0.00 | 0.00 | 94 | 1017.1 |
| 20260508034546 | 49 | 269 | 0.0 | 0.0 | 0.00 | 0.00 | 0.00 | 93 | 1017.4 |
| 20260508033044 | 50 | 269 | 0.0 | 0.0 | 0.00 | 0.00 | 0.00 | 93 | 1017.7 |
| 20260508031540 | 50 | 269 | 0.0 | 0.0 | 0.00 | 0.00 | 0.00 | 92 | 1017.5 |
| 20260508030036 | 51 | 269 | 0.0 | 0.0 | 0.00 | 0.00 | 0.00 | 92 | 1017.5 |
| 20260508024559 | 51 | 269 | 0.0 | 0.0 | 0.00 | 0.00 | 0.00 | 91 | 1017.1 |
| 20260508023038 | 52 | 269 | 0.0 | 0.0 | 0.00 | 0.00 | 0.00 | 89 | 1017.1 |
| 20260508021536 | 52 | 269 | 0.0 | 0.0 | 0.00 | 0.00 | 0.00 | 87 | 1016.9 |
| 20260508020038 | 53 | 269 | 0.0 | 0.0 | 0.00 | 0.00 | 0.00 | 87 | 1016.8 |
| 20260508014537 | 54 | 269 | 0.0 | 0.0 | 0.00 | 0.00 | 0.00 | 85 | 1016.8 |
| 20260508013035 | 55 | 269 | 0.0 | 0.0 | 0.00 | 0.00 | 0.00 | 81 | 1016.8 |
| 20260508011533 | 56 | 269 | 0.0 | 0.0 | 0.00 | 0.00 | 0.00 | 78 | 1016.5 |
| 20260508010047 | 58 | 269 | 0.0 | 0.0 | 0.00 | 0.00 | 0.00 | 76 | 1016.6 |
| 20260508004543 | 59 | 269 | 0.0 | 0.0 | 0.00 | 0.00 | 0.00 | 72 | 1016.5 |
| 20260508003030 | 61 | 269 | 0.0 | 0.0 | 0.00 | 0.00 | 0.00 | 67 | 1016.5 |
| 20260508001538 | 63 | 269 | 0.0 | 0.0 | 0.00 | 0.00 | 0.00 | 63 | 1016.0 |
| 20260508000029 | 64 | 269 | 0.0 | 0.9 | 0.00 | 0.00 | 0.00 | 60 | 1016.1 |
| 20260507234532 | 65 | 269 | 0.0 | 1.7 | 0.00 | 0.00 | 0.00 | 54 | 1016.0 |
| 20260507233028 | 65 | 232 | 0.0 | 1.7 | 0.00 | 0.00 | 0.00 | 55 | 1015.9 |
| 20260507231526 | 66 | 236 | 0.0 | 2.6 | 0.00 | 0.00 | 0.00 | 52 | 1016.1 |
| 20260507230026 | 68 | 342 | 0.0 | 2.6 | 0.00 | 0.00 | 0.00 | 51 | 1016.1 |
| 20260507224524 | 69 | 246 | 0.0 | 1.7 | 0.00 | 0.00 | 0.00 | 51 | 1016.0 |
| 20260507223023 | 69 | 246 | 0.0 | 2.6 | 0.00 | 0.00 | 0.00 | 51 | 1016.0 |
| 20260507221521 | 69 | 244 | 1.7 | 4.3 | 0.00 | 0.00 | 0.00 | 48 | 1016.0 |
| 20260507220018 | 68 | 288 | 0.0 | 2.6 | 0.00 | 0.00 | 0.00 | 52 | 1015.8 |
| 20260507214516 | 68 | 287 | 0.0 | 4.3 | 0.00 | 0.00 | 0.00 | 50 | 1015.8 |
| 20260507213022 | 68 | 270 | 0.9 | 4.3 | 0.00 | 0.00 | 0.00 | 51 | 1015.9 |